Hourly Data Report for October 12, 2013

All times are specified in Local Standard Time (LST). Add 1 hour to adjust for Daylight Saving Time where and when it is observed.

KITCHENER/WATERLOO
ONTARIO

43°27'39.000" N
80°22'43.000" W
321.60 m
6144239
71368
YKF

Download Data

Hourly Data (October 2013)
Hourly Data Report for October 12, 2013
Temp Definition
°C
Dew Point Temp Definition
°C
Rel Hum Definition
%
Wind Dir Definition
10's deg

Wind Spd Definition
km/h
Visibility Definition
km
Stn Press Definition
kPa
Hmdx Definition


Wind Chill Definition


Weather Definition


TIME
00:00 Legend Double Dagger 4.4 4.0 97 34 4 16.1 98.24     LegendNANA
01:00 Legend Double Dagger 4.4 3.7 95   0 16.1 98.26     LegendNANA
02:00 Legend Double Dagger 3.6 3.2 97   0 16.1 98.24     LegendNANA
03:00 Legend Double Dagger 4.5 3.9 96   0 16.1 98.23     LegendNANA
04:00 Legend Double Dagger 3.7 3.4 98 30 4 8.1 98.24     LegendNANA
05:00 Legend Double Dagger 3.6 3.3 98 35 4 9.7 98.28     LegendNANA
06:00 Legend Double Dagger 3.2 2.9 98 7 5 16.1 98.32     LegendNANA
07:00 Legend Double Dagger 2.9 2.8 99   0 4.8 98.36     LegendNANA
08:00 Legend Double Dagger 8.2 6.8 91 LegendMM 4 16.1 98.39     LegendNANA
09:00 Legend Double Dagger 14.4 10.1 75 10 9 16.1 98.38     LegendNANA
10:00 Legend Double Dagger 17.2 10.1 63 11 11 16.1 98.35     LegendNANA
11:00 Legend Double Dagger 19.1 10.9 59 14 17 16.1 98.31     LegendNANA
12:00 Legend Double Dagger 20.6 12.6 60 16 17 16.1 98.29     LegendNANA
13:00 Legend Double Dagger 21.3 13.4 60 13 13 16.1 98.23     LegendNANA
14:00 Legend Double Dagger 22.2 12.9 55 11 15 16.1 98.20 25   LegendNANA
15:00 Legend Double Dagger 22.1 12.0 52 13 17 16.1 98.19     LegendNANA
16:00 Legend Double Dagger 20.7 12.0 57 11 21 16.1 98.16     LegendNANA
17:00 Legend Double Dagger 17.6 11.4 67 9 11 16.1 98.20     LegendNANA
18:00 Legend Double Dagger 14.4 9.3 71 9 9 16.1 98.24     LegendNANA
19:00 Legend Double Dagger 12.0 8.7 80 9 11 16.1 98.25     LegendNANA
20:00 Legend Double Dagger 12.8 9.3 79 7 8 16.1 98.28     LegendNANA
21:00 Legend Double Dagger 12.8 9.4 80 7 8 16.1 98.26     LegendNANA
22:00 Legend Double Dagger 12.7 9.2 79   0 16.1 98.26     LegendNANA
23:00 Legend Double Dagger 12.4 10.4 87 LegendMM 4 16.1 98.26     LegendNANA

Notes on Data Quality.

Legend

  • E = Estimated
  • M = Missing
  • NA = Not Available
  • ‡ = Partner data that is not subject to review by the National Climate Archives
Date modified: